,

(GMT )
Aqaba

Weather History for OJAQ - December, 2012

Change the Weather History Date:

Friday, December 7, 2012

  Actual Average Record
Temperature  
Mean Temperature 66 °F -  
Max Temperature 77 °F - - ()
Min Temperature 55 °F - - ()
Cooling Degree Days 1    
Growing Degree Days 16 (Base 50)    
Moisture  
Dew Point 43 °F    
Average Humidity 41    
Maximum Humidity 63    
Minimum Humidity 22    
Precipitation  
Precipitation 0.00 in - - ()
Sea Level Pressure  
Sea Level Pressure 29.96 in    
Wind  
Wind Speed 2 mph ()    
Max Wind Speed 7 mph    
Max Gust Speed -    
Visibility 6.0 miles    
Events      
T = Trace of Precipitation, MM = Missing Value Source: Averaged Metar Reports

Daily Weather History Graph

Daily Weather History Graph

Search for Another Location

Airport or City:

Trip Planner

Search our weather history database for the weather conditions in past years. The results will help you decide how hot, cold, wet, or windy it might be!

Date:

Astronomy

Dec. 07, 2012 Rise Set
Actual Time 7:22 AM EEST 5:40 PM EEST
Civil Twilight 6:55 AM EEST 6:06 PM EEST
Nautical Twilight 6:26 AM EEST 6:36 PM EEST
Astronomical Twilight 5:57 AM EEST 7:05 PM EEST
Moon 12:45 AM EEST (12/7) 1:03 PM EEST (12/7)
Length of Visible Light 11h 11m
Length of Day
10h 18m
Last Quarter, 42% of the Moon is Illuminated
Dec 7
Last Quarter
Dec 13
New
Dec 20
First Quarter
Dec 28
Full
Jan 5
Last Quarter

Hourly Weather History & Observations

Time (EEST) Temp. Dew Point Humidity Pressure Visibility Wind Dir Wind Speed Gust Speed Precip Events Conditions
12:00 AM 63 °F 45 °F 40% 29.97 in 6 mi Calm Calm - -  
12:00 AM 62.6 °F 44.6 °F 52% 29.98 in - Calm Calm - N/A   Clear
6:00 AM 55 °F 42 °F 52% 29.96 in 6 mi Calm Calm - -  
6:00 AM 55.4 °F 42.8 °F 63% 29.98 in - Calm Calm - N/A   Clear
8:00 AM 59.0 °F 42.8 °F 55% 29.98 in - Calm Calm - N/A   Clear
9:00 AM 55.4 °F 41.0 °F 58% 30.01 in - Calm Calm - N/A   Clear
10:00 AM 57.2 °F 41.0 °F 55% 30.01 in - Calm Calm - N/A   Clear
11:00 AM 64.4 °F 42.8 °F 45% 30.01 in - Calm Calm - N/A   Clear
12:00 PM 68 °F 43 °F 29% 29.99 in 6 mi North 6.9 mph - -   Clear
12:00 PM 68.0 °F 42.8 °F 40% 30.01 in - North 6.9 mph - N/A   Clear
1:00 PM 69.8 °F 42.8 °F 38% 30.01 in - North 6.9 mph - N/A   Clear
2:00 PM 71.6 °F 42.8 °F 35% 29.95 in - North 6.9 mph - N/A   Clear
3:00 PM 77.0 °F 41.0 °F 28% 29.92 in - NNE 3.5 mph - N/A   Clear
4:00 PM 77.0 °F 41.0 °F 28% 29.92 in - NNE 3.5 mph - N/A   Clear
6:00 PM 75 °F 44 °F 22% 29.90 in 6 mi NNW 3.5 mph - -   Clear
6:00 PM 75.2 °F 44.6 °F 34% 29.92 in - NNW 3.5 mph - N/A   Clear
7:00 PM 73.4 °F 44.6 °F 36% 29.92 in - NNW 3.5 mph - N/A   Clear
8:00 PM 71.6 °F 44.6 °F 38% 29.92 in - Calm Calm - N/A   Clear
9:00 PM 71.6 °F 42.8 °F 35% 29.95 in - North 4.6 mph - N/A   Clear
10:00 PM 71.6 °F 42.8 °F 35% 29.95 in - North 5.8 mph - N/A   Clear
11:00 PM 69.8 °F 42.8 °F 38% 29.98 in - North 5.8 mph - N/A   Clear